Regional Weather Roundup
Issued by NWS

Home | Current Version | Previous Version | Text Only | Print | Product List | Glossary On
Versions: 1 2 3 4 5 6 7 8 9 10 11 12 13 14 15 16 17 18 19 20 21 22 23 24 25 26 27 28 29 30 31 32 33 34 35 36 37 38 39 40 41 42 43 44 45 46 47 48 49 50
000
ASUS46 KPQR 201710
RWROR

OREGON REGIONAL WEATHER ROUNDUP
NATIONAL WEATHER SERVICE PORTLAND OR
1000 AM PDT WED SEP 20 2017

NOTE: "FAIR" INDICATES FEW OR NO CLOUDS BELOW 12,000 FEET WITH
NO SIGNIFICANT WEATHER AND/OR OBSTRUCTIONS TO VISIBILITY.

ORZ001>013-201800-
NORTHWEST OREGON


CITY           SKY/WX    TMP DP  RH WIND       PRES   REMARKS
ASTORIA        LGT RAIN  50  47  89 NE3       29.68R FOG
NEWPORT        LGT RAIN  52  50  93 SE3       29.79S
PORTLAND       PTSUNNY   55  48  77 SW13      29.70R
VANCOUVER WA   PTSUNNY   56  49  77 SW8       29.69R
SCAPPOOSE      CLOUDY    54  49  83 S6        29.68R
HILLSBORO      PTSUNNY   55  48  77 S9        29.69R
AURORA         PTSUNNY   54  47  77 S8        29.73R
MCMINNVILLE    PTSUNNY   54  50  86 SW7       29.73R
SALEM          LGT RAIN  54  48  80 SW8       29.74R
EUGENE         PTSUNNY   55  51  86 SW12      29.79R
$$

ORZ021-028-201800-
SOUTHWEST OREGON


CITY           SKY/WX    TMP DP  RH WIND       PRES   REMARKS
NORTH BEND     MOSUNNY   59  52  77 SW12      29.85R
BROOKINGS      PTSUNNY   57  55  93 VRB3      29.91R
ROSEBURG       PTSUNNY   59  48  67 S8        29.84R
SEXTON SUMMIT  FOG       41  39  93 NW8       29.85R VSB 1/2
GRANTS PASS    CLOUDY    57  48  72 N12       29.89S
MEDFORD        RAIN      54  50  86 NW13G20   29.84R FOG
$$

ORZ014>016-041-201800-
COLUMBIA GORGE


CITY           SKY/WX    TMP DP  RH WIND       PRES   REMARKS
TROUTDALE      CLOUDY    55  47  74 SW14      29.69R
HOOD RIVER     LGT RAIN  50  46  87 CALM      29.65R
THE DALLES     LGT RAIN  54  50  86 E7        29.65R
$$

ORZ029>031-041-044-049-050-061>064-502-503-505>511-201800-
EASTERN OREGON


CITY           SKY/WX    TMP DP  RH WIND       PRES   REMARKS
MADRAS         SUNNY    N/A N/A N/A SW10      29.71S
REDMOND        MOSUNNY   48  37  65 SW16G23   29.72R
BEND           LGT RAIN  43  39  87 SW5G16    29.75R
PRINEVILLE     PTSUNNY   48  39  71 W14G24    29.73S
KLAMATH FALLS  PTSUNNY   56  40  55 W21G30    29.80R
LAKEVIEW       LGT RAIN  50  43  76 S18       29.80F
HERMISTON      CLOUDY    53  50  89 CALM      29.64R
PENDLETON      PTSUNNY   51  46  83 W9        29.64R
JOHN DAY       PTSUNNY   46  43  91 SW9       29.70R
MEACHAM        CLOUDY    45  40  82 VRB6      29.63R
LA GRANDE      PTSUNNY   44  42  93 E10       29.65R
BAKER CITY     MOSUNNY   51  43  74 S16       29.63S
BURNS          LGT RAIN  46  44  93 SW26G38   29.71F
ROME             N/A     61  37  41 SW26G39   29.73S
ONTARIO        LGT RAIN  55  46  71 SW16      29.70R
$$



USA.gov is the U.S. government's official web portal to all federal, state and local government web resources and services.